This demonstration page uses our WeatherBlox Daily Observations layout. Learn more.

Left ArrowRight Arrow

39.92423, -83.80882

Hourly Observations for June 5, 2015

Temp ( °F °C ) Dew Point ( °F °C ) Humidity (%) Winds ( mph kmh ) Pressure ( in mb ) Visibility ( mi km ) Precip ( " mm )
12:56 am 00:56 Clear 65 18.3 60 15.5 84 84 WSW 3 6 30.04 1017 9 14.48406 0 0
1:56 am 01:56 Clear 65 18.3 60 15.5 84 84 Calm 30.03 1017 9 14.48406 0 0
2:56 am 02:56 Clear 62 16.6 59 15 90 90 Calm 30.03 1017 8 12.87472 0 0
3:56 am 03:56 Clear 60 15.5 60 15.5 100 100 W 5 7 30.04 1017 7 11.26538 0 0
4:56 am 04:56 Clear with Mist and Fog 60 15.5 59 15 97 97 SW 3 6 30.03 1017 6 9.65604 0 0
5:56 am 05:56 Clear with Mist and Fog 58 14.4 58 14.4 100 100 Calm 30.03 1017 4 6.43736 0 0
6:40 am 06:40 Sunny with Mist and Fog 57 14 57 14 100 100 SW 5 7 30.06 1018 2.5 4.02335 0 0
6:56 am 06:56 Sunny with Mist and Fog 59 15 59 15 100 100 SW 3 6 30.04 1017 2.5 4.02335 0 0
7:14 am 07:14 Sunny with Mist and Fog 61 16 61 16 100 100 Calm 30.06 1018 3 4.82802 0 0
7:56 am 07:56 Sunny with Mist and Fog 64 17.7 63 17.2 97 97 Calm 30.05 1018 4 6.43736 0 0
8:56 am 08:56 Hazy 71 21.6 62 16.6 73 73 W 3 6 30.06 1018 6 9.65604 0 0
9:56 am 09:56 Sunny 75 23.8 61 16.1 62 62 WSW 6 9 30.04 1017 7 11.26538 0 0
10:56 am 10:56 Sunny 78 25.5 60 15.5 54 54 VRB 5 7 30.04 1017 8 12.87472 0 0
11:56 am 11:56 Partly Cloudy 80 26.6 62 16.6 54 54 W 8 13 30.05 1018 8 12.87472 0 0
12:56 pm 12:56 Mostly Sunny 81 27.2 62 16.6 52 52 WNW 3 6 30.04 1017 8 12.87472 0 0
1:56 pm 13:56 Mostly Sunny 83 28.3 63 17.2 51 51 NW 8 13 30.01 1016 8 12.87472 0 0
2:56 pm 14:56 Mostly Sunny 84 28.8 61 16.1 46 46 WSW 8 13 30 1016 8 12.87472 0 0
3:56 pm 15:56 Partly Cloudy 85 29.4 62 16.6 46 46 VRB 7 11 29.98 1015 9 14.48406 0 0
4:24 pm 16:24 Mostly Cloudy with Heavy Rain 81 27 66 19 62 62 N 18 30 29.94 1014 1.75 2.816345 0.05 1.27
4:26 pm 16:26 Mostly Cloudy with Heavy Rain 79 26 68 20 70 70 N 18 30 29.94 1014 1 1.60934 0.06 1.524
4:35 pm 16:35 Mostly Cloudy with Haze 73 23 68 20 83 83 NNE 13 20 29.97 1015 1.75 2.816345 0.06 1.524
4:37 pm 16:37 Mostly Cloudy with Haze 73 23 68 20 83 83 NE 12 19 29.97 1015 3 4.82802 0.06 1.524
4:48 pm 16:48 Partly Cloudy with Nearby Thunderstorms 75 24 68 20 78 78 ENE 8 13 29.97 1015 8 12.87472 0.06 1.524
4:56 pm 16:56 Partly Cloudy with Nearby Thunderstorms 77 25 67 19.4 71 71 ENE 8 13 29.99 1016 9 14.48406 0.06 1.524
5:07 pm 17:07 Sunny 79 26 66 19 65 65 ENE 5 7 29.94 1014 8 12.87472 0 0
5:46 pm 17:46 Sunny with Nearby Thunderstorms 81 27 66 19 62 62 E 5 7 29.94 1014 9 14.48406 0 0
5:56 pm 17:56 Sunny with Nearby Thunderstorms 81 27.2 65 18.3 58 58 Calm 29.97 1015 8 12.87472 0 0
6:05 pm 18:05 Partly Cloudy with Nearby Thunderstorms 81 27 66 19 62 62 E 5 7 29.94 1014 9 14.48406 0 0
6:44 pm 18:44 Partly Cloudy 81 27 68 20 66 66 Calm 29.91 1013 8 12.87472 0.02 0.508
6:56 pm 18:56 Mostly Sunny 80 26.6 67 19.4 65 65 Calm 29.95 1014 8 12.87472 0.02 0.508
7:56 pm 19:56 Sunny with Nearby Thunderstorms 79 26.1 66 18.8 64 64 WNW 6 9 29.96 1014 9 14.48406 0 0
8:29 pm 20:29 Mostly Cloudy 77 25 66 19 69 69 N 6 9 29.91 1013 8 12.87472 0 0
8:56 pm 20:56 Mostly Sunny 75 23.8 66 18.8 74 74 NNE 5 7 29.96 1015 8 12.87472 0 0
9:56 pm 21:56 Clear 70 21.1 66 18.8 87 87 NW 5 7 29.97 1015 9 14.48406 0 0
10:56 pm 22:56 Clear 70 21.1 62 16.6 76 76 NNW 7 11 29.98 1015 10 16.0934 0 0
11:56 pm 23:56 Clear 70 21.1 65 18.3 84 84 NNE 10 17 30 1016 9 14.48406 0 0

Powered by AerisWeather